"Pseudo-MPEC" for W05854

Created 2023 Nov 30 6:22:08 UT using Find_Orb

Click here for an explanation of pseudo-MPECs

 
 Astrometry: 
     W05854 * C2023 11 18yB))Qs8TqN,i!AstrometrybaZ']$AoYp-YHeredacted;7!-t*_O18
     W05854   C2023 11 18GvmIGu06wrRclickS,Yj0U9f40sG2^9here3F3q_[mfor,^:'n*$O18
     W05854   C2023 11 18@\1LpV6KoV9%PakhXh3OMHvYa6;/AsPW+VMamx0#8explanationO18

Station data:
(O18) WFST, Lenghu  (N38.607601 E93.895220).

Orbital elements:  W05854
   Perihelion 2035 Dec 27.42409 +/- 3538 TT = 10:10:41 (JD 2464688.92409)
Epoch 2023 Nov 19.0 TT = JDT 2460267.5                           AutoNEOCP
M 265.93896980 +/- 80               (J2000 ecliptic)
n   0.02127392 +/- 0.0528           Peri.  119.70156 +/- 100
a  12.8994445 +/- 21.4              Node    84.06197 +/- 35
e   0.5115572 +/- 0.224             Incl.   13.01347 +/- 60
P  46.33                   H  9.79  G  0.15   U 10.9  SR
q 6.30064025 +/- 5.92    Q 19.4982489 +/- 270
From 3 observations 2023 Nov. 18 (18.5 min); mean residual 0".04
Residuals in arcseconds: 
231118 O18  .03-  .03-    231118 O18  .05+  .07+    231118 O18  .02-  .03-    

Ephemerides (geocentric):
Date (UTC) HH   RA             Dec           delta  r     elong  mag " sig PA
---- --------  ------------   ------------  ------ ------ -----  --- --------
2023 11 30 06  03 58 45.275   +14 54 58.36  15.160 16.136 171.3 21.8 551'  88
2023 11 30 07  03 58 44.729   +14 54 57.24  15.160 16.135 171.3 21.8 592'  87
2023 11 30 08  03 58 44.182   +14 54 56.13  15.160 16.135 171.2 21.8 631'  86
2023 11 30 09  03 58 43.636   +14 54 55.01  15.160 16.135 171.2 21.8 667'  86
2023 11 30 10  03 58 43.089   +14 54 53.89  15.160 16.135 171.2 21.8 700'  85
2023 11 30 11  03 58 42.543   +14 54 52.77  15.160 16.135 171.1 21.8 730'  84
2023 11 30 12  03 58 41.997   +14 54 51.65  15.160 16.135 171.1 21.8 757'  84
2023 11 30 13  03 58 41.451   +14 54 50.54  15.160 16.135 171.1 21.8 781'  83
2023 11 30 14  03 58 40.905   +14 54 49.42  15.160 16.135 171.0 21.8 802'  83
2023 11 30 15  03 58 40.358   +14 54 48.31  15.160 16.135 171.0 21.8 821'  83
2023 11 30 16  03 58 39.812   +14 54 47.20  15.160 16.135 171.0 21.8 837'  82
2023 11 30 17  03 58 39.266   +14 54 46.08  15.160 16.135 170.9 21.8 852'  82
2023 11 30 18  03 58 38.720   +14 54 44.97  15.160 16.135 170.9 21.8 865'  82
2023 11 30 19  03 58 38.175   +14 54 43.86  15.160 16.135 170.8 21.8 877'  82
2023 11 30 20  03 58 37.629   +14 54 42.75  15.160 16.135 170.8 21.8 888'  82
2023 11 30 21  03 58 37.083   +14 54 41.64  15.160 16.134 170.8 21.8 897'  82
2023 11 30 22  03 58 36.537   +14 54 40.53  15.160 16.134 170.7 21.8 906'  81
2023 11 30 23  03 58 35.991   +14 54 39.42  15.160 16.134 170.7 21.8 914'  81
2023 12 01 00  03 58 35.446   +14 54 38.32  15.160 16.134 170.7 21.8 921'  81
2023 12 01 01  03 58 34.900   +14 54 37.21  15.160 16.134 170.6 21.8 927'  81
2023 12 01 02  03 58 34.355   +14 54 36.10  15.160 16.134 170.6 21.8 933'  81
2023 12 01 03  03 58 33.809   +14 54 35.00  15.160 16.134 170.6 21.8 939'  81
2023 12 01 04  03 58 33.264   +14 54 33.90  15.160 16.134 170.5 21.8 944'  81
2023 12 01 05  03 58 32.719   +14 54 32.79  15.160 16.134 170.5 21.8 949'  81
2023 12 01 06  03 58 32.173   +14 54 31.69  15.161 16.134 170.5 21.8 953'  81
2023 12 01 07  03 58 31.628   +14 54 30.59  15.161 16.134 170.4 21.8 957'  81
2023 12 01 08  03 58 31.083   +14 54 29.49  15.161 16.134 170.4 21.8 961'  81
2023 12 01 09  03 58 30.538   +14 54 28.39  15.161 16.134 170.3 21.8 964'  81
2023 12 01 10  03 58 29.993   +14 54 27.29  15.161 16.134 170.3 21.8 968'  81
2023 12 01 11  03 58 29.448   +14 54 26.19  15.161 16.133 170.3 21.8 971'  81
2023 12 01 12  03 58 28.903   +14 54 25.09  15.161 16.133 170.2 21.8 974'  81
2023 12 01 13  03 58 28.358   +14 54 23.99  15.161 16.133 170.2 21.8 977'  81
2023 12 01 14  03 58 27.813   +14 54 22.90  15.161 16.133 170.2 21.8 979'  81
2023 12 01 15  03 58 27.269   +14 54 21.80  15.161 16.133 170.1 21.8 982'  81
2023 12 01 16  03 58 26.724   +14 54 20.71  15.161 16.133 170.1 21.8 984'  81
2023 12 01 17  03 58 26.179   +14 54 19.61  15.161 16.133 170.1 21.8 986'  81
2023 12 01 18  03 58 25.635   +14 54 18.52  15.161 16.133 170.0 21.8 988'  81
2023 12 01 19  03 58 25.090   +14 54 17.43  15.161 16.133 170.0 21.8 990'  81
2023 12 01 20  03 58 24.546   +14 54 16.33  15.161 16.133 169.9 21.8 992'  81
2023 12 01 21  03 58 24.001   +14 54 15.24  15.161 16.133 169.9 21.8 994'  81
2023 12 01 22  03 58 23.457   +14 54 14.15  15.161 16.133 169.9 21.8 996'  81
2023 12 01 23  03 58 22.913   +14 54 13.06  15.161 16.133 169.8 21.8 997'  81
2023 12 02 00  03 58 22.369   +14 54 11.98  15.161 16.133 169.8 21.8 999'  81
2023 12 02 01  03 58 21.825   +14 54 10.89  15.161 16.132 169.8 21.9  17d  81
2023 12 02 02  03 58 21.281   +14 54 09.80  15.161 16.132 169.7 21.9  17d  81
2023 12 02 03  03 58 20.737   +14 54 08.71  15.161 16.132 169.7 21.9  17d  81
2023 12 02 04  03 58 20.193   +14 54 07.63  15.161 16.132 169.6 21.9  17d  81
2023 12 02 05  03 58 19.649   +14 54 06.54  15.161 16.132 169.6 21.9  17d  81